Location: Marysville Observatory
(48.1092°N, 122.1645°W)
Time: 02:44:40
(UTC-07:00)

ISS - Visible Passes

Search period start: 31 March 2015 00:00
Search period end: 10 April 2015 00:00
Orbit: 396 x 405 km, 51.6° (Epoch: 31 March)

Date Brightness Start Highest point End Pass type
(mag) Time Alt. Az. Time Alt. Az. Time Alt. Az.
31 Mar -1.3 04:50:05 19° SSE 04:50:05 19° SSE 04:51:12 10° SE visible
03 Apr -0.6 21:57:45 10° SW 21:58:00 12° SW 21:58:00 12° SW visible
04 Apr -2.5 21:04:32 10° SSW 21:07:27 30° SE 21:07:46 29° SE visible
05 Apr -3.3 21:46:48 10° WSW 21:49:49 75° WSW 21:49:49 75° WSW visible
06 Apr -3.3 20:53:15 10° SW 20:56:28 56° SSE 20:58:56 16° ENE visible
06 Apr -1.3 22:29:44 10° W 22:31:31 27° WNW 22:31:31 27° WNW visible
07 Apr -2.9 21:35:56 10° W 21:39:10 61° NNW 21:40:24 33° NE visible
07 Apr 0.0 23:12:44 10° WNW 23:12:59 12° WNW 23:12:59 12° WNW visible
08 Apr -3.3 20:42:11 10° WSW 20:45:26 85° NNW 20:48:43 10° ENE visible
08 Apr -2.0 22:18:55 10° WNW 22:21:40 40° NNW 22:21:40 40° NNW visible
09 Apr -2.4 21:25:03 10° W 21:28:14 47° N 21:30:12 20° ENE visible
09 Apr -0.5 23:01:45 10° WNW 23:02:46 18° WNW 23:02:46 18° WNW visible
